Time,TemperatureF,DewpointF,PressureIn,WindDirection,WindDirectionDegrees,WindSpeedMPH,WindSpeedGustMPH,Humidity,HourlyPrecipIn,Conditions,Clouds,dailyrainin,SoftwareType,DateUTC
2013-03-11 00:29:00,42.6,29.7,30.16,ENE,72,2.0,8.0,60,0.00,,,0.00,VWS V14.01,2013-03-11 07:29:00,
2013-03-11 00:59:00,41.4,30.1,30.16,ENE,77,2.0,13.0,64,0.00,,,0.00,VWS V14.01,2013-03-11 07:59:00,
2013-03-11 01:29:00,41.1,30.2,30.15,East,83,2.0,8.0,65,0.00,,,0.00,VWS V14.01,2013-03-11 08:29:00,
2013-03-11 01:59:00,40.0,29.9,30.15,ENE,78,6.0,8.0,67,0.00,,,0.00,VWS V14.01,2013-03-11 08:59:00,
2013-03-11 02:29:00,40.4,29.2,30.13,East,83,3.0,13.0,64,0.00,,,0.00,VWS V14.01,2013-03-11 09:29:00,
2013-03-11 02:59:00,41.3,28.1,30.13,ENE,75,1.0,11.0,59,0.00,,,0.00,VWS V14.01,2013-03-11 09:59:00,
2013-03-11 03:29:00,39.5,28.0,30.12,ENE,76,3.0,11.0,63,0.00,,,0.00,VWS V14.01,2013-03-11 10:29:00,
2013-03-11 03:59:00,41.2,27.6,30.11,East,79,2.0,13.0,58,0.00,,,0.00,VWS V14.01,2013-03-11 10:59:00,
2013-03-11 04:29:00,41.4,26.9,30.11,ENE,70,4.0,9.0,56,0.00,,,0.00,VWS V14.01,2013-03-11 11:29:00,
2013-03-11 04:59:00,41.2,26.7,30.11,ENE,75,3.0,11.0,56,0.00,,,0.00,VWS V14.01,2013-03-11 11:59:00,
2013-03-11 05:29:00,39.2,25.7,30.11,ENE,69,4.0,13.0,58,0.00,,,0.00,VWS V14.01,2013-03-11 12:29:00,
2013-03-11 05:59:00,41.8,25.5,30.11,ENE,75,0.0,11.0,52,0.00,,,0.00,VWS V14.01,2013-03-11 12:59:00,
2013-03-11 06:29:00,42.0,25.2,30.12,ENE,70,2.0,8.0,51,0.00,,,0.00,VWS V14.01,2013-03-11 13:29:00,
2013-03-11 06:59:00,41.6,24.4,30.12,ENE,73,3.0,8.0,50,0.00,,,0.00,VWS V14.01,2013-03-11 13:59:00,
2013-03-11 07:29:00,47.4,21.1,30.11,ENE,60,0.0,9.0,35,0.00,,,0.00,VWS V14.01,2013-03-11 14:29:00,
2013-03-11 07:59:00,50.2,23.6,30.12,East,82,0.0,7.0,35,0.00,,,0.00,VWS V14.01,2013-03-11 14:59:00,
2013-03-11 08:29:00,55.4,31.5,30.13,East,82,0.0,3.0,40,0.00,,,0.00,VWS V14.01,2013-03-11 15:29:00,
2013-03-11 08:59:00,60.0,30.1,30.14,West,264,0.0,3.0,32,0.00,,,0.00,VWS V14.01,2013-03-11 15:59:00,
2013-03-11 09:29:00,61.6,22.4,30.14,West,262,1.0,3.0,22,0.00,,,0.00,VWS V14.01,2013-03-11 16:29:00,
2013-03-11 09:59:00,62.8,23.4,30.14,West,266,3.0,7.0,22,0.00,,,0.00,VWS V14.01,2013-03-11 16:59:00,
2013-03-11 10:29:00,64.4,25.8,30.13,WSW,240,2.0,6.0,23,0.00,,,0.00,VWS V14.01,2013-03-11 17:29:00,
2013-03-11 10:59:00,67.1,31.1,30.13,ENE,64,0.0,10.0,26,0.00,,,0.00,VWS V14.01,2013-03-11 17:59:00,
2013-03-11 11:29:00,68.5,31.3,30.12,NNW,337,0.0,15.0,25,0.00,,,0.00,VWS V14.01,2013-03-11 18:29:00,
2013-03-11 12:29:00,69.5,26.7,30.10,East,99,7.0,13.0,20,0.00,,,0.00,VWS V14.01,2013-03-11 19:29:00,
2013-03-11 12:59:00,69.7,30.3,30.09,NW,308,1.0,13.0,23,0.00,,,0.00,VWS V14.01,2013-03-11 19:59:00,
2013-03-11 13:29:00,69.4,34.9,30.08,WNW,289,11.0,11.0,28,0.00,,,0.00,VWS V14.01,2013-03-11 20:29:00,
2013-03-11 13:59:00,69.2,37.3,30.07,NW,316,0.0,11.0,31,0.00,,,0.00,VWS V14.01,2013-03-11 20:59:00,
2013-03-11 14:29:00,68.5,34.1,30.05,WNW,294,8.0,10.0,28,0.00,,,0.00,VWS V14.01,2013-03-11 21:29:00,
2013-03-11 14:59:00,69.6,35.1,30.04,NE,56,1.0,13.0,28,0.00,,,0.00,VWS V14.01,2013-03-11 21:59:00,
2013-03-11 15:29:00,69.0,35.5,30.03,NW,323,3.0,11.0,29,0.00,,,0.00,VWS V14.01,2013-03-11 22:29:00,
2013-03-11 15:59:00,68.7,39.2,30.03,West,273,6.0,11.0,34,0.00,,,0.00,VWS V14.01,2013-03-11 22:59:00,
2013-03-11 16:29:00,67.7,38.3,30.02,WNW,298,1.0,12.0,34,0.00,,,0.00,VWS V14.01,2013-03-11 23:29:00,
2013-03-11 16:59:00,66.9,38.4,30.01,WSW,255,3.0,10.0,35,0.00,,,0.00,VWS V14.01,2013-03-11 23:59:00,
2013-03-11 17:29:00,66.2,37.8,30.00,NW,314,3.0,7.0,35,0.00,,,0.00,VWS V14.01,2013-03-12 00:29:00,
2013-03-11 17:59:00,63.9,36.5,30.01,West,268,3.0,7.0,36,0.00,,,0.00,VWS V14.01,2013-03-12 00:59:00,
2013-03-11 18:29:00,62.6,36.0,30.01,WSW,255,0.0,7.0,37,0.00,,,0.00,VWS V14.01,2013-03-12 01:29:00,
2013-03-11 18:59:00,57.7,39.2,30.00,ENE,64,2.0,3.0,50,0.00,,,0.00,VWS V14.01,2013-03-12 01:59:00,
2013-03-11 19:29:00,51.1,38.5,30.01,East,81,1.0,5.0,62,0.00,,,0.00,VWS V14.01,2013-03-12 02:29:00,
2013-03-11 19:59:00,49.2,37.6,30.01,East,84,1.0,5.0,64,0.00,,,0.00,VWS V14.01,2013-03-12 02:59:00,
2013-03-11 20:29:00,47.9,37.5,30.02,East,84,2.0,6.0,67,0.00,,,0.00,VWS V14.01,2013-03-12 03:29:00,
2013-03-11 20:59:00,47.7,37.3,30.03,East,85,2.0,6.0,67,0.00,,,0.00,VWS V14.01,2013-03-12 03:59:00,
2013-03-11 21:29:00,46.4,36.8,30.03,East,86,2.0,6.0,69,0.00,,,0.00,VWS V14.01,2013-03-12 04:29:00,
2013-03-11 21:59:00,46.0,36.4,30.04,East,83,1.0,8.0,69,0.00,,,0.00,VWS V14.01,2013-03-12 04:59:00,
2013-03-11 22:29:00,45.8,35.8,30.05,East,85,3.0,6.0,68,0.00,,,0.00,VWS V14.01,2013-03-12 05:29:00,
2013-03-11 22:59:00,45.9,35.6,30.04,East,81,3.0,6.0,67,0.00,,,0.00,VWS V14.01,2013-03-12 05:59:00,
2013-03-11 23:29:00,45.7,35.4,30.04,East,86,3.0,8.0,67,0.00,,,0.00,VWS V14.01,2013-03-12 06:29:00,
2013-03-11 23:59:00,45.5,34.4,30.03,East,80,5.0,9.0,65,0.00,,,0.00,VWS V14.01,2013-03-12 06:59:00,